Flag for Slovakia Weather past 2 weeks in Prievidza, Slovakia

Now
66 °F

Passing clouds.


Feels Like: 66 °F
Forecast: 60 / 78 °F
Wind: 5 mph from North

Location: Prievidza

Current Time: Jul 28, 2014 at 9:35:09 PM

Latest Report: Jul 28, 2014 at 9:00 PM


Visibility: 10 mi

Pressure: 29.85 "Hg

Humidity: 92%

Dew point: 64 °F

Location of PrievidzaLocation

Historic Weather in Prievidza — Graph

°F

Prievidza temperature yesterday

Maximum temperature yesterday: 88 °F (at 3:00 PM)
Minimum temperature yesterday: 64 °F (at 5:00 AM)
Average temperature yesterday: 72 °F

Past Weeks' High & Low Weather Summary

 TemperatureHumidityPressure
High90 °F (Jul 20, 3:00 PM)95% (Jul 23, 6:00 AM)30.09 "Hg (Jul 23, 6:00 AM)
Low57 °F (Jul 25, 3:00 AM)32% (Jul 17, 1:00 PM)29.67 "Hg (Jul 21, 4:00 PM)
Average72 °F67%29.92 "Hg
* Reported Jul 13 8:00 PM — Jul 28 8:00 PM, Prievidza, Weather by CustomWeather, © 2014

Note: Actual official high and low records may vary slightly from our data, if they occured in-between our weather recording intervals... More about our weather records

Advertising

Prievidza weather history for previous 24 hours

 ConditionsComfort  
Time TempWeatherWind HumidityBarometerVisibility
8:00 PM
Jul 28
67 °FOvercast.2 mph91%29.85 "Hg12 mi
7:00 PM68 °FLight rain. Overcast.2 mph90%29.86 "Hg7 mi
6:00 PM68 °FThunderstorms. Overcast.N/A89%29.87 "Hg16 mi
5:00 PM66 °FThundershowers. Overcast.3 mph91%29.88 "Hg4 mi
4:00 PM66 °FThundershowers. Overcast.6 mph87%29.87 "Hg6 mi
3:00 PM83 °FPartly sunny.3 mph51%29.82 "Hg16 mi
2:00 PM80 °FPartly sunny.5 mph59%29.84 "Hg16 mi
1:00 PM80 °FScattered clouds.2 mph57%29.85 "Hg16 mi
12:00 PM75 °FPartly sunny.N/A72%29.87 "Hg11 mi
11:00 AM71 °FPartly sunny.2 mph80%29.88 "Hg11 mi
10:00 AM69 °FOvercast.2 mph84%29.90 "Hg9 mi
9:00 AM67 °FLight rain. Overcast.5 mph87%29.90 "Hg9 mi
8:00 AM66 °FOvercast.3 mph87%29.90 "Hg9 mi
7:00 AM66 °FMild.5 mph86%29.90 "Hg11 mi
6:00 AM65 °FMild.3 mph89%29.90 "Hg8 mi
5:00 AM64 °FLight rain. Overcast.3 mph91%29.90 "Hg7 mi
4:00 AM64 °FMild.3 mph91%29.91 "Hg6 mi
3:00 AM64 °FMild.3 mph91%29.91 "Hg6 mi
2:00 AM64 °FFog.3 mph92%29.93 "Hg6 mi
1:00 AM64 °FFog.2 mph92%29.92 "Hg5 mi
12:00 AM65 °FFog.3 mph91%29.93 "Hg5 mi
11:00 PM
Jul 27
65 °FFog.3 mph91%29.94 "Hg6 mi
10:00 PM66 °FMild.3 mph91%29.93 "HgN/A
9:00 PM67 °FPassing clouds.N/A90%29.92 "Hg12 mi
Weather by CustomWeather, © 2014

See weather overviewHow to use our weather pages